SCP
0 0 0 0 0 0 0 0 0 0 0 0 0 0 0 0 0 0 0 0 0 0 0 0 0 0 0 0 0 0 0 0 0 0 0 0 0 0 0 0 0 0 0 0
0 0 0 0 0 0 0 0 0 0 0 0 0 0 0 0 0 0 0 0 0 0 0 0 0 0 0 0 0 0 0 0 0 0 0 0 0 0 0 0 0 0 0 0
0 0 0 0 0 0 0 0 0 0 0 0 0 0 0 0 0 0 0 0 0 0 0 0 0 0 0 0 0 0 0 0 0 0 0 0 0 0 0 0 0 0 0 0
0 0 0 0 0 0 0 0 0 0 0 0 0 0 0 0 0 0 0 0 0 0 0 0 0 0 0 0 0 0 0 0 0 0 0 0 0 0 0 0 0 0 0 0
0 0 0 0 0 0 0 0 0 0 0 0 0 0 0 0 0 0 0 0 0 0 0 0 0 0 0 0 0 0 0 0 0 0 0 0 0 0 0 0 0 0 0 0
0 0 0 0 0 0 0 0 0 0 0 0 0 0 0 0 0 0 0 0 0 0 0 0 0 0 0 0 0 0 0 0 0 0 0 0 0 0 0 0 0 0 0 0
0 0 0 0 0 0 0 0 0 0 0 0 0 0 0 0 0 0 0 0 0 0 0 0 0 0 0 0 0 0 0 0 0 0 0 0 0 0 0 0 0 0 0 0
0 0 0 0 0 0 0 0 0 0 0 0 0 0 0 0 0 0 0 0 0 0 0 0 0 0 0 0 0 0 0 0 0 0 0 0 0 0 0 0 0 0 0 0
0 0 0 0 0 0 0 0 0 0 0 0 0 0 0 0 0 0 0 0 0 0 0 0 0 0 0 0 0 0 0 0 0 0 0 0 0 0 0 0 0 0 0 0
0 0 0 0 0 0 0 0 0 0 0 0 0 0 0 0 0 0 0 0 0 0 0 0 0 0 0 0 0 0 0 0 0 0 0 0 0 0 0 0 0 0 0 0
0 0 0 0 0 0 0 0 0 0 0 0 0 0 0 0 0 0 0 0 0 0 0 0 0 0 0 0 0 0 0 0 0 0 0 0 0 0 0 0 0 0 0 0
0 0 0 0 0 0 0 0 0 0 0 0 0 0 0 0 0 0 0 0 0 0 0 0 0 0 0 0 0 0 0 0 0 0 0 0 0 0 0 0 0 0 0 0
0 0 0 0 0 0 0 0 0 0 0 0 0 0 0 0 0 0 0 0 0 0 0 0 0 0 0 0 0 0 0 0 0 0 0 0 0 0 0 0 0 0 0 0
0 0 0 0 0 0 0 0 0 0 0 0 0 0 0 0 0 0 0 0 0 0 0 0 0 0 0 0 0 0 0 0 0 0 0 0 0 0 0 0 0 0 0 0
0 0 0 0 0 0 0 0 0 0 0 0 0 0 0 0 0 0 0 0 0 0 0 0 0 0 0 0 0 0 0 0 0 0 0 0 0 0 0 0 0 0 0 0
0 0 0 0 0 0 0 0 0 0 0 0 0 0 0 0 0 0 0 0 0 0 0 0 0 0 0 0 0 0 0 0 0 0 0 0 0 0 0 0 0 0 0 0
0 0 0 0 0 0 0 0 0 0 0 0 0 0 0 0 0 0 0 0 0 0 0 0 0 0 0 0 0 0 0 0 0 0 0 0 0 0 0 0 0 0 0 0
0 0 0 0 0 0 0 0 0 0 0 0 0 0 0 0 0 0 0 0 0 0 0 0 0 0 0 0 0 0 0 0 0 0 0 0 0 0 0 0 0 0 0 0
0 0 0 0 0 0 0 0 0 0 0 0 0 0 0 0 0 0 0 0 0 0 0 0 0 0 0 0 0 0 0 0 0 0 0 0 0 0 0 0 0 0 0 0
0 0 0 0 0 0 0 0 0 0 0 0 0 0 0 0 0 0 0 0 0 0 0 0 0 0 0 0 0 0 0 0 0 0 0 0 0 0 0 0 0 0 0 0
0 0 0 0 0 0 0 0 0 0 0 0 0 0 0 0 0 0 0 0 0 0 0 0 0 0 0 0 0 0 0 0 0 0 0 0 0 0 0 0 0 0 0 0
0 0 0 0 0 0 0 0 0 0 0 0 0 0 0 0 0 0 0 0 0 0 0 0 0 0 0 0 0 0 0 0 0 0 0 0 0 0 0 0 0 0 0 0
0 0 0 0 0 0 0 0 0 0 0 0 0 0 0 0 0 0 0 0 0 0 0 0 0 0 0 0 0 0 0 0 0 0 0 0 0 0 0 0 0 0 0 0
0 0 0 0 0 0 0 0 0 0 0 0 0 0 0 0 0 0 0 0 0 0 0 0 0 0 0 0 0 0 0 0 0 0 0 0 0 0 0 0 0 0 0 0
0 0 0 0 0 0 0 0 0 0 0 0 0 0 0 0 0 0 0 0 0 0 0 0 0 0 0 0 0 0 0 0 0 0 0 0 0 0 0 0 0 0 0 0
0 0 0 0 0 0 0 0 0 0 0 0 0 0 0 0 0 0 0 0 0 0 0 0 0 0 0 0 0 0 0 0 0 0 0 0 0 0 0 0 0 0 0 0
0 0 0 0 0 0 0 0 0 0 0 0 0 0 0 0 0 0 0 0 0 0 0 0 0 0 0 0 0 0 0 0 0 0 0 0 0 0 0 0 0 0 0 0
Wind_Speed
2 1 2 3 3 4 6 6 6 5 2 2 5 4 3 3 1 2 2 3 4 3 3 2 2 3 3 3 3 4 4 5 6 6 6 6 6 7 7 8 9 8 7 8
5 5 5 8 8 7 7 7 6 4 3 3 5 5 4 3 1 2 2 4 5 4 4 3 2 3 3 3 3 4 5 5 5 5 6 6 6 6 6 7 7 7 7 7
4 6 6 8 7 9 8 6 6 6 2 7 6 6 4 2 1 1 2 3 4 4 4 3 3 3 3 2 3 4 5 5 5 5 5 6 7 7 6 6 6 6 6 6
7 5 6 5 4 2 5 7 7 5 2 6 6 4 3 3 2 1 1 2 3 4 3 3 4 3 2 3 4 5 5 4 4 5 5 5 5 5 6 5 5 5 5 6
4 6 5 6 4 3 4 6 9 9 7 7 6 6 7 7 4 1 1 2 2 3 4 4 5 4 3 3 5 5 4 4 5 5 5 5 5 5 4 4 4 4 4 5
5 5 4 7 8 5 2 6 8 11 10 9 9 6 6 9 7 4 2 2 2 3 4 4 4 3 3 4 5 5 4 5 5 4 4 5 5 4 4 3 4 3 3 4
6 6 2 8 8 6 3 4 3 8 10 11 10 5 5 9 7 5 3 2 1 2 2 3 3 3 3 5 5 5 4 4 4 4 3 3 4 4 4 4 4 4 3 4
4 5 1 9 7 5 3 2 1 5 8 10 8 6 7 7 6 5 5 3 1 2 1 0 1 3 3 4 4 3 3 2 2 3 3 3 2 3 3 4 4 4 4 4
2 2 5 7 7 5 3 4 2 5 6 9 8 8 8 7 6 5 4 4 3 1 2 2 1 2 2 3 2 2 2 1 0 1 1 2 3 4 4 4 4 4 4 4
4 4 4 10 10 7 5 5 4 3 7 9 9 8 8 7 6 6 5 4 4 3 4 2 2 1 0 1 1 3 3 2 1 0 2 2 2 3 3 4 4 4 5 4
6 7 5 5 8 8 7 6 6 4 6 8 9 9 9 7 7 6 5 5 4 4 2 1 2 2 2 1 2 3 4 4 3 2 1 1 2 2 2 3 2 2 3 4
5 4 4 4 2 5 7 8 8 6 7 8 9 9 9 8 7 6 6 6 5 5 4 4 3 3 3 2 3 4 2 1 2 2 2 1 2 2 1 1 3 2 1 2
6 5 4 4 3 3 6 8 9 8 7 8 9 9 9 8 7 7 7 7 6 6 6 5 4 3 3 3 3 4 3 1 2 1 1 2 2 2 2 2 2 2 2 1
5 5 6 6 5 4 6 7 8 9 9 8 8 8 8 8 8 8 8 7 6 6 6 5 4 4 3 3 3 4 4 1 1 1 1 2 1 1 1 2 2 3 4 4
12 10 7 5 7 5 3 5 7 9 9 9 9 9 9 9 9 8 8 7 7 6 6 6 5 5 4 4 3 4 3 2 2 1 2 2 2 2 1 1 2 2 3 3
16 12 10 9 8 8 6 6 8 9 9 10 10 10 10 9 8 7 8 8 8 8 7 7 6 6 5 5 4 3 2 2 2 1 2 3 3 3 2 2 2 2 3 3
17 16 15 14 12 11 9 8 8 9 10 10 10 10 10 10 9 8 8 8 8 7 7 7 7 6 6 6 5 4 3 4 6 3 3 4 3 3 3 2 2 2 3 4
13 14 15 16 15 14 14 13 10 10 9 9 10 10 11 12 12 10 9 8 8 8 7 7 7 7 7 6 5 4 3 3 4 4 4 4 3 2 2 2 3 3 4 4
15 15 16 16 16 15 15 14 14 11 10 9 10 11 11 11 11 10 10 10 10 10 9 7 9 8 7 8 6 3 3 3 3 4 4 4 3 3 3 3 3 3 4 5
14 15 16 16 16 15 15 15 15 13 10 9 9 10 11 11 10 10 11 11 9 8 8 8 9 7 7 8 9 4 4 5 4 3 3 3 3 4 4 4 4 4 3 4
14 15 16 16 17 17 16 16 14 13 11 9 8 9 9 9 10 10 10 9 8 9 9 11 8 7 7 7 11 6 5 5 4 4 4 4 4 4 4 4 4 4 4 4
13 14 16 16 17 17 16 16 16 15 13 9 8 7 7 8 9 10 10 7 6 11 9 7 6 9 10 10 7 6 6 5 5 4 4 3 3 3 4 4 3 3 3 3
12 13 14 15 16 16 17 17 17 16 14 12 9 7 7 6 6 7 7 6 6 11 9 7 10 13 15 9 7 7 7 6 5 5 5 4 4 4 4 4 3 3 3 3
12 13 13 14 14 14 16 17 18 15 16 13 11 9 6 4 4 5 5 8 11 12 8 10 15 17 15 8 7 7 7 7 6 6 5 5 5 4 4 4 3 3 3 3
11 11 12 13 12 10 12 14 15 16 16 14 16 14 10 5 4 3 2 4 9 11 7 10 15 17 12 7 7 7 7 7 7 6 6 5 5 4 4 3 3 3 3 3
9 8 7 9 8 8 9 9 9 10 12 12 13 13 12 9 8 5 3 1 4 7 6 5 7 10 8 7 8 7 7 7 7 7 6 6 6 5 5 4 5 4 4 4
8 7 5 5 5 6 7 7 8 9 10 11 13 13 12 11 10 10 9 5 2 2 2 3 5 6 7 7 7 7 6 6 6 6 6 6 5 5 5 6 5 5 4 4
Wind_Direction
69 56 307 280 256 241 262 297 321 19 25 148 153 164 177 195 240 304 344 7 13 17 30 4 57 69 57 28 16 24 33 30 20 26 22 18 22 22 22 21 25 22 29 33
231 199 248 263 248 234 246 261 274 285 267 131 128 154 192 209 223 302 360 15 9 12 27 357 45 67 65 38 29 38 43 37 27 31 24 19 22 21 23 30 24 21 25 31
291 159 255 258 231 214 222 227 239 253 221 141 166 191 203 210 223 285 10 16 9 5 16 345 42 66 79 53 49 49 49 44 33 35 31 26 23 18 19 30 26 22 22 24
286 259 272 87 74 154 222 233 225 236 162 159 185 177 186 213 228 250 42 26 14 358 351 7 41 38 89 102 73 59 46 49 48 41 31 25 24 23 20 19 21 21 21 19
291 308 286 138 137 160 221 256 224 212 195 176 177 178 206 201 199 199 69 37 16 352 350 27 34 13 19 76 80 67 44 40 50 45 32 21 19 19 20 12 11 21 23 23
295 295 320 104 122 135 225 266 210 192 187 175 178 214 215 171 168 172 134 63 11 338 4 26 18 356 360 64 76 70 51 41 45 49 41 28 12 9 11 14 7 14 22 30
263 277 327 114 129 152 224 6 112 175 178 177 192 214 129 141 152 152 140 132 294 310 36 29 356 345 23 57 67 73 63 45 37 34 51 57 13 5 15 6 359 8 22 31
230 255 135 138 157 204 266 25 176 181 179 179 188 168 134 145 149 160 166 168 212 301 13 55 358 351 41 77 82 94 91 63 52 46 29 40 17 8 16 2 5 13 16 23
306 8 125 183 206 234 284 297 258 181 178 177 183 175 161 164 167 176 185 174 180 222 278 261 115 45 19 92 111 134 135 116 42 104 104 46 17 17 18 15 10 6 11 15
288 277 213 199 215 237 241 258 276 193 177 180 186 182 171 175 178 181 194 186 178 210 234 230 124 134 34 108 192 204 180 182 229 308 75 77 55 30 35 24 12 4 7 7
261 271 262 204 200 219 226 227 243 223 189 185 186 188 181 185 188 186 189 182 184 217 228 244 203 185 165 189 260 245 208 190 197 145 102 66 101 67 57 82 75 26 2 357
253 327 351 7 144 202 222 220 226 223 203 190 188 193 190 192 190 187 188 187 190 197 201 240 235 192 164 170 258 276 268 177 150 153 155 181 161 139 60 108 148 109 42 13
280 317 328 322 315 245 234 228 221 219 211 199 195 196 197 194 187 185 191 197 196 190 194 221 231 215 179 168 230 271 278 234 155 150 170 216 204 181 175 185 219 264 268 336
344 322 298 297 290 259 241 235 225 219 215 207 200 198 199 201 196 191 194 199 199 195 192 205 216 220 187 172 217 254 266 243 158 181 227 255 243 223 177 166 183 203 220 234
345 331 319 317 311 301 268 244 232 224 217 212 204 202 201 203 204 197 193 195 197 200 197 201 208 210 184 181 221 248 249 213 181 217 224 243 241 231 216 199 194 164 151 190
340 344 348 335 314 299 278 253 243 235 223 216 211 207 206 205 205 200 194 193 200 205 202 201 205 197 178 181 213 246 249 188 186 233 255 241 224 224 223 212 205 178 155 159
358 351 343 333 323 313 298 275 255 247 236 223 215 209 207 206 206 206 201 197 202 207 201 200 199 185 172 179 203 221 226 194 191 217 247 254 242 230 222 207 206 182 148 144
356 346 340 333 326 318 309 299 279 256 246 234 216 209 210 210 209 207 204 201 202 206 211 204 187 176 173 181 202 220 228 208 191 207 227 239 240 241 237 219 210 182 156 161
1 354 347 339 332 322 313 305 297 282 257 241 225 216 213 213 211 207 205 206 206 206 206 202 191 181 179 187 195 202 232 247 231 220 220 223 226 241 249 235 220 206 178 165
1 358 352 346 341 332 321 312 303 294 277 252 235 222 216 212 207 207 209 212 206 197 189 187 186 188 192 187 182 193 213 229 232 235 233 225 221 228 234 230 216 210 198 182
358 357 354 350 345 340 333 323 312 302 293 272 250 235 222 212 205 206 212 218 205 185 183 188 186 181 191 182 176 190 205 218 218 222 234 230 225 233 239 237 221 207 203 200
353 353 352 350 347 344 342 337 333 323 310 294 273 255 237 219 210 211 213 206 193 183 178 177 181 181 185 177 177 191 198 210 214 212 220 231 236 240 244 243 234 216 205 202
345 345 346 347 345 343 344 345 341 335 329 319 304 283 259 238 217 212 219 201 187 184 182 182 185 188 187 180 180 189 198 206 208 208 209 215 225 233 238 245 240 226 214 211
337 339 339 341 341 346 348 346 342 342 339 334 330 323 305 278 251 228 212 199 197 187 187 188 185 188 186 190 191 195 200 201 201 204 206 207 213 223 231 233 232 229 227 229
330 332 335 338 341 343 341 342 344 347 349 350 345 339 332 322 305 286 253 208 188 178 185 188 185 186 188 196 198 202 203 199 195 192 199 203 207 211 221 229 226 226 227 230
317 319 326 332 338 338 337 340 344 347 351 353 342 337 338 338 339 337 326 291 171 174 181 175 181 189 198 203 205 206 203 199 194 192 191 192 198 200 207 220 236 234 231 231
299 302 304 315 329 335 335 336 340 344 352 351 338 340 343 348 350 349 346 346 15 160 192 193 186 193 203 206 209 209 204 197 188 184 188 192 197 204 209 212 213 219 224 228